User: anonymous   Login
Location: Newark
(13.8625°N, 100.5144°E)
Time: 20:00:31
(UTC+00:00)
Language:

STARS - Orbit

View from above orbital plane
View from above orbital plane
View from above satellite
View from above satellite

Ground track
Ground track

The orbit data is extracted from the following two-line orbital elements,

1 33498U 09002G   21204.44827129  .00000245  00000-0  40204-4 0  9999
2 33498  98.2093  85.2800 0009741 226.2300 133.8106 14.79380923672787
Epoch (UTC): 23 July 2021 10:45:30
Eccentricity: 0.0009741
inclination: 98.2093°
perigee height: 624 km
apogee height: 638 km
right ascension of ascending node: 85.2800°
argument of perigee: 226.2300°
revolutions per day: 14.79380923
mean anomaly at epoch: 133.8106°
orbit number at epoch: 67278

The dashed part of the orbit path shows where the satellite is in the earth's shadow,  

DLR